This is the latest recevied weather packets stored in our database for station/object WA0LM. If no packets are shown the sender has not sent any weather packets the latest 10 day(s).
| Time | Temp. | Humidity | Pressure | Rain* | Wind** | Luminosity | Snow |
|---|---|---|---|---|---|---|---|
| 1777500749 | 10° C | 48% | 1014.9 hPa | 0 mm | - | 307 W/m² | - |
| 1777500446 | 10° C | 48% | 1014.9 hPa | 0 mm | - | 466 W/m² | - |
| 1777500141 | 9.44° C | 49% | 1014.8 hPa | 0 mm | - | 196 W/m² | - |
| 1777499839 | 9.44° C | 47% | 1015 hPa | 0 mm | - | 120 W/m² | - |
| 1777499535 | 9.44° C | 49% | 1014.9 hPa | 0 mm | - | 115 W/m² | - |
| 1777499233 | 10° C | 49% | 1015.1 hPa | 0 mm | - | 192 W/m² | - |
| 1777498930 | 10° C | 47% | 1014.9 hPa | 0 mm | - | 159 W/m² | - |
| 1777498627 | 10° C | 48% | 1015 hPa | 0 mm | - | 503 W/m² | - |
| 1777498323 | 10° C | 48% | 1015.1 hPa | 0 mm | - | 573 W/m² | - |
| 1777498021 | 10° C | 47% | 1015 hPa | 0 mm | - | 403 W/m² | - |
| 1777497717 | 10° C | 46% | 1014.9 hPa | 0 mm | - | 535 W/m² | - |
| 1777497414 | 10.56° C | 50% | 1015.1 hPa | 0 mm | - | 659 W/m² | - |
| 1777497109 | 9.44° C | 51% | 1015.2 hPa | 0 mm | - | 282 W/m² | - |
| 1777496806 | 9.44° C | 49% | 1015.4 hPa | 0 mm | - | 195 W/m² | - |
| 1777496503 | 9.44° C | 51% | 1015.4 hPa | 0 mm | - | 239 W/m² | - |
| 1777496199 | 10° C | 51% | 1015.3 hPa | 0 mm | - | 717 W/m² | - |
| 1777495896 | 9.44° C | 47% | 1015.4 hPa | 0 mm | - | 391 W/m² | - |
| 1777495591 | 8.89° C | 51% | 1015.3 hPa | 0 mm | - | 250 W/m² | - |
| 1777495287 | 8.89° C | 49% | 1015.4 hPa | 0 mm | - | 218 W/m² | - |
| 1777494986 | 8.89° C | 53% | 1015.7 hPa | 0 mm | - | 235 W/m² | - |
| 1777494682 | 8.89° C | 54% | 1015.8 hPa | 0 mm | - | 519 W/m² | - |
| 1777494379 | 8.89° C | 50% | 1015.7 hPa | 0 mm | - | 873 W/m² | - |
| 1777494076 | 9.44° C | 48% | 1015.8 hPa | 0 mm | - | 488 W/m² | - |
| 1777493774 | 9.44° C | 54% | 1015.7 hPa | 0 mm | - | 265 W/m² | - |
| 1777493471 | 8.89° C | 49% | 1016 hPa | 0 mm | - | 429 W/m² | - |
* Rain latest hour (hover to see other rain measurements)
** Current wind speed in m/s (hover to see current wind gust speed)